| time (UTC) | temp F | wind direction | speed MPH | gust MPH | rain 1hr in | rain 24hr in | rain mn in | humidity % | barometer mb |
| 20260502151520 | 44 | 325 | 0.0 | 3.0 | 0.00 | 0.15 | 0.15 | 50 | 1012.1 |
| 20260502150117 | 44 | 319 | 2.0 | 8.0 | 0.00 | 0.15 | 0.15 | 42 | 1012.0 |
| 20260502123043 | 44 | 260 | 0.0 | 2.0 | 0.00 | 0.15 | 0.15 | 1 | 1011.9 |
| 20260502114515 | 43 | 271 | 0.0 | 0.0 | 0.01 | 0.15 | 0.15 | 1 | 1012.0 |
| 20260502113106 | 43 | 271 | 0.0 | 0.0 | 0.01 | 0.15 | 0.15 | 1 | 1011.8 |
| 20260502111529 | 42 | 271 | 0.0 | 1.0 | 0.00 | 0.14 | 0.14 | 1 | 1011.8 |
| 20260502110121 | 42 | 271 | 0.0 | 0.0 | 0.01 | 0.14 | 0.14 | 1 | 1012.1 |
| 20260502104548 | 42 | 271 | 0.0 | 1.0 | 0.04 | 0.14 | 0.14 | 1 | 1011.7 |
| 20260502103132 | 42 | 271 | 0.0 | 0.0 | 0.05 | 0.14 | 0.14 | 1 | 1011.4 |
| 20260502101617 | 42 | 271 | 0.0 | 0.0 | 0.06 | 0.14 | 0.14 | 1 | 1011.1 |
| 20260502070137 | 43 | 40 | 0.0 | 1.0 | 0.03 | 0.04 | 0.04 | 15 | 1011.5 |
| 20260502064549 | 43 | 331 | 0.0 | 0.0 | 0.03 | 0.04 | 0.04 | 18 | 1011.4 |
| 20260502063006 | 43 | 331 | 0.0 | 0.0 | 0.01 | 0.02 | 0.02 | 27 | 1011.7 |
| 20260502061552 | 43 | 331 | 0.0 | 0.0 | 0.01 | 0.02 | 0.02 | 32 | 1011.7 |
| 20260502060012 | 44 | 331 | 0.0 | 2.0 | 0.00 | 0.01 | 0.01 | 37 | 1011.7 |
| 20260502053020 | 44 | 331 | 0.0 | 1.0 | 0.00 | 0.01 | 0.01 | 54 | 1011.6 |
| 20260502051634 | 45 | 331 | 0.0 | 0.0 | 0.01 | 0.01 | 0.01 | 61 | 1011.6 |
| 20260502050026 | 45 | 331 | 0.0 | 3.0 | 0.01 | 0.01 | 0.01 | 60 | 1012.1 |
| 20260502044616 | 46 | 286 | 0.0 | 0.0 | 0.01 | 0.01 | 0.01 | 60 | 1011.8 |
| 20260502043034 | 46 | 286 | 0.0 | 2.0 | 0.01 | 0.01 | 0.01 | 63 | 1011.9 |
| 20260502041626 | 47 | 240 | 0.0 | 0.0 | 0.00 | 0.00 | 0.00 | 65 | 1011.9 |
| 20260502040058 | 47 | 240 | 0.0 | 0.0 | 0.00 | 0.00 | 0.00 | 68 | 1011.9 |
| 20260502034538 | 47 | 240 | 0.0 | 0.0 | 0.00 | 0.00 | 0.00 | 69 | 1011.7 |
| 20260502033128 | 47 | 240 | 0.0 | 0.0 | 0.00 | 0.00 | 0.00 | 69 | 1011.9 |
| 20260502031545 | 47 | 240 | 0.0 | 0.0 | 0.00 | 0.00 | 0.00 | 69 | 1011.9 |
| 20260502030003 | 47 | 240 | 0.0 | 0.0 | 0.00 | 0.00 | 0.00 | 70 | 1011.9 |
| 20260502024556 | 47 | 240 | 0.0 | 0.0 | 0.00 | 0.00 | 0.00 | 68 | 1012.0 |
| 20260502021605 | 48 | 240 | 0.0 | 0.0 | 0.00 | 0.00 | 0.00 | 65 | 1012.1 |
| 20260502020023 | 48 | 240 | 0.0 | 0.0 | 0.00 | 0.00 | 0.00 | 56 | 1012.1 |
| 20260502014610 | 48 | 240 | 0.0 | 2.0 | 0.00 | 0.00 | 0.00 | 55 | 1012.1 |
| 20260502013040 | 49 | 240 | 0.0 | 0.0 | 0.00 | 0.00 | 0.00 | 55 | 1012.1 |
| 20260502011622 | 50 | 240 | 0.0 | 0.0 | 0.00 | 0.00 | 0.00 | 56 | 1012.0 |
| 20260502010041 | 50 | 240 | 0.0 | 3.0 | 0.00 | 0.00 | 0.00 | 55 | 1011.8 |
| 20260502004636 | 51 | 302 | 0.0 | 0.0 | 0.00 | 0.00 | 0.00 | 52 | 1011.8 |
| 20260502003101 | 51 | 302 | 0.0 | 0.0 | 0.00 | 0.00 | 0.00 | 52 | 1011.6 |
| 20260502001513 | 52 | 302 | 0.0 | 0.0 | 0.00 | 0.00 | 0.00 | 49 | 1011.3 |
| 20260502000105 | 52 | 302 | 0.0 | 0.0 | 0.00 | 0.00 | 0.00 | 48 | 1011.0 |
| 20260501234523 | 53 | 302 | 0.0 | 1.0 | 0.00 | 0.00 | 0.00 | 46 | 1010.8 |
| 20260501233112 | 54 | 302 | 0.0 | 0.0 | 0.00 | 0.00 | 0.00 | 45 | 1010.7 |
| 20260501230117 | 55 | 302 | 0.0 | 1.0 | 0.00 | 0.00 | 0.00 | 44 | 1010.5 |
| 20260501224537 | 55 | 301 | 0.0 | 0.0 | 0.00 | 0.00 | 0.00 | 43 | 1010.4 |
| 20260501223129 | 55 | 301 | 0.0 | 1.0 | 0.00 | 0.00 | 0.00 | 41 | 1010.3 |
| 20260501221551 | 57 | 269 | 1.0 | 6.0 | 0.00 | 0.00 | 0.00 | 38 | 1010.2 |
| 20260501220016 | 57 | 234 | 0.0 | 9.0 | 0.00 | 0.00 | 0.00 | 37 | 1010.2 |
| 20260501214610 | 58 | 332 | 0.0 | 5.0 | 0.00 | 0.00 | 0.00 | 37 | 1010.2 |
| 20260501213031 | 58 | 232 | 0.0 | 4.0 | 0.00 | 0.00 | 0.00 | 38 | 1010.2 |
| 20260501211624 | 58 | 95 | 0.0 | 3.0 | 0.00 | 0.00 | 0.00 | 37 | 1010.3 |
| 20260501210039 | 60 | 323 | 1.0 | 4.0 | 0.00 | 0.00 | 0.00 | 35 | 1010.3 |
| 20260501204624 | 60 | 275 | 2.0 | 8.0 | 0.00 | 0.00 | 0.00 | 33 | 1010.2 |
| 20260501203049 | 60 | 300 | 0.0 | 7.0 | 0.00 | 0.00 | 0.00 | 36 | 1010.3 |
| 20260501201505 | 59 | 258 | 0.0 | 5.0 | 0.00 | 0.00 | 0.00 | 34 | 1010.1 |
| 20260501200053 | 58 | 319 | 2.0 | 6.0 | 0.00 | 0.00 | 0.00 | 35 | 1010.1 |
| 20260501194522 | 59 | 360 | 2.0 | 8.0 | 0.00 | 0.00 | 0.00 | 35 | 1010.1 |
| 20260501193119 | 59 | 307 | 1.0 | 9.0 | 0.00 | 0.00 | 0.00 | 36 | 1010.3 |
| 20260501191537 | 57 | 313 | 2.0 | 12.0 | 0.00 | 0.00 | 0.00 | 39 | 1010.4 |
| 20260501190126 | 56 | 268 | 2.0 | 6.0 | 0.00 | 0.00 | 0.00 | 40 | 1010.7 |
| 20260501184549 | 57 | 25 | 2.0 | 10.0 | 0.00 | 0.00 | 0.00 | 41 | 1010.8 |
| 20260501183004 | 55 | 225 | 2.0 | 6.0 | 0.00 | 0.00 | 0.00 | 40 | 1010.9 |
| 20260501181610 | 54 | 328 | 1.0 | 9.0 | 0.00 | 0.00 | 0.00 | 41 | 1011.2 |
| 20260501180020 | 55 | 230 | 1.0 | 11.0 | 0.00 | 0.00 | 0.00 | 42 | 1011.1 |
| 20260501174608 | 53 | 343 | 2.0 | 11.0 | 0.00 | 0.00 | 0.00 | 42 | 1011.3 |
| 20260501173024 | 56 | 261 | 2.0 | 5.0 | 0.00 | 0.00 | 0.00 | 39 | 1011.4 |
| 20260501171618 | 54 | 283 | 1.0 | 10.0 | 0.00 | 0.00 | 0.00 | 40 | 1011.3 |
| 20260501170034 | 54 | 265 | 3.0 | 8.0 | 0.00 | 0.00 | 0.00 | 40 | 1011.3 |
| 20260501164633 | 54 | 271 | 2.0 | 9.0 | 0.00 | 0.02 | 0.00 | 41 | 1011.3 |
| 20260501163052 | 54 | 309 | 3.0 | 13.0 | 0.00 | 0.02 | 0.00 | 40 | 1011.5 |
| 20260501161519 | 54 | 17 | 2.0 | 8.0 | 0.00 | 0.02 | 0.00 | 41 | 1011.4 |
| 20260501160140 | 53 | 260 | 3.0 | 12.0 | 0.00 | 0.02 | 0.00 | 44 | 1011.7 |
| 20260501153125 | 52 | 315 | 3.0 | 11.0 | 0.00 | 0.06 | 0.00 | 45 | 1011.9 |